CPA903 VHHH-RPLL

Flight info

Callsign CPA903
Flight time 1h 27m
Altitude 37000
Route DALOL DCT NOMAN A461 CAB CAB3R
Aircraft B744/H-SDE3FGHIM1M2RWXY/LB1

Departure

Time 2026-05-03 22:33
Airport Hong Kong International Airport (VHHH)

Arrival

Time 2026-05-04 00:00
Airport Ninoy Aquino International Airport (RPLL)
Time Latitude Longitude Altitude Speed Heading
2026-05-03 22:05 22.31109 113.92749 41 ft 0 kts 297°
2026-05-03 22:21 22.31107 113.92752 41 ft 2 kts 297°
2026-05-03 22:21 22.31100 113.92768 41 ft 2 kts 297°
2026-05-03 22:21 22.31093 113.92783 41 ft 2 kts 295°
2026-05-03 22:21 22.31089 113.92800 41 ft 2 kts 264°
2026-05-03 22:22 22.31094 113.92816 41 ft 2 kts 231°
2026-05-03 22:22 22.31100 113.92823 41 ft 0 kts 217°
2026-05-03 22:26 22.31066 113.92804 41 ft 15 kts 200°
2026-05-03 22:26 22.30966 113.92766 41 ft 15 kts 199°
2026-05-03 22:26 22.30873 113.92730 41 ft 14 kts 207°
2026-05-03 22:27 22.30817 113.92653 41 ft 13 kts 253°
2026-05-03 22:27 22.30780 113.92532 41 ft 22 kts 251°
2026-05-03 22:27 22.30732 113.92379 41 ft 21 kts 250°
2026-05-03 22:27 22.30684 113.92234 41 ft 20 kts 250°
2026-05-03 22:28 22.30635 113.92085 41 ft 27 kts 251°
2026-05-03 22:28 22.30568 113.91871 41 ft 30 kts 251°
2026-05-03 22:28 22.30503 113.91667 41 ft 27 kts 251°
2026-05-03 22:28 22.30445 113.91484 41 ft 24 kts 251°
2026-05-03 22:29 22.30390 113.91314 41 ft 23 kts 250°
2026-05-03 22:29 22.30326 113.91119 41 ft 28 kts 250°
2026-05-03 22:29 22.30264 113.90931 41 ft 25 kts 250°
2026-05-03 22:29 22.30209 113.90761 41 ft 23 kts 250°
2026-05-03 22:30 22.30158 113.90604 41 ft 22 kts 251°
2026-05-03 22:30 22.30110 113.90452 41 ft 21 kts 251°
2026-05-03 22:30 22.30064 113.90306 41 ft 20 kts 251°
2026-05-03 22:30 22.30020 113.90165 41 ft 19 kts 251°
2026-05-03 22:31 22.29979 113.90034 41 ft 18 kts 251°
2026-05-03 22:31 22.29939 113.89909 41 ft 17 kts 251°
2026-05-03 22:31 22.29901 113.89790 41 ft 16 kts 250°
2026-05-03 22:31 22.29810 113.89743 41 ft 15 kts 169°
2026-05-03 22:32 22.29713 113.89782 41 ft 14 kts 152°
2026-05-03 22:32 22.29656 113.89862 41 ft 13 kts 100°
2026-05-03 22:32 22.29673 113.89968 41 ft 22 kts 70°
2026-05-03 22:32 22.29797 113.90339 41 ft 90 kts 71°
2026-05-03 22:33 22.30089 113.91242 46 ft 165 kts 70°
2026-05-03 22:33 22.30484 113.92467 812 ft 170 kts 70°
2026-05-03 22:33 22.30855 113.93636 1854 ft 162 kts 70°
2026-05-03 22:33 22.31236 113.94817 2322 ft 173 kts 70°
2026-05-03 22:34 22.31659 113.96128 2617 ft 197 kts 70°
2026-05-03 22:34 22.32135 113.97606 2920 ft 218 kts 70°
2026-05-03 22:34 22.32639 113.99174 3535 ft 223 kts 70°
2026-05-03 22:34 22.33153 114.00771 4194 ft 227 kts 70°
2026-05-03 22:35 22.33630 114.02386 4829 ft 230 kts 75°
2026-05-03 22:35 22.33842 114.04101 5480 ft 233 kts 88°
2026-05-03 22:35 22.33555 114.05831 6072 ft 237 kts 109°
2026-05-03 22:35 22.32690 114.07350 6650 ft 240 kts 130°
2026-05-03 22:36 22.31349 114.08461 7087 ft 249 kts 152°
2026-05-03 22:36 22.29690 114.09048 7553 ft 255 kts 171°
2026-05-03 22:36 22.27913 114.08979 8115 ft 260 kts 192°
2026-05-03 22:36 22.26074 114.08643 8607 ft 276 kts 186°
2026-05-03 22:37 22.24155 114.08564 9296 ft 285 kts 182°
2026-05-03 22:37 22.22143 114.08605 9981 ft 291 kts 181°
2026-05-03 22:37 22.20091 114.08633 10627 ft 302 kts 183°
2026-05-03 22:37 22.17904 114.08904 10797 ft 333 kts 166°
2026-05-03 22:38 22.15765 114.10111 10996 ft 364 kts 145°
2026-05-03 22:38 22.13989 114.12193 11257 ft 391 kts 126°
2026-05-03 22:38 22.12698 114.14813 11967 ft 401 kts 115°
2026-05-03 22:38 22.11641 114.17633 12819 ft 408 kts 113°
2026-05-03 22:39 22.10478 114.20452 13685 ft 414 kts 116°
2026-05-03 22:39 22.09178 114.23240 14564 ft 419 kts 118°
2026-05-03 22:39 22.07464 114.25795 15391 ft 423 kts 133°
2026-05-03 22:39 22.05357 114.28016 16292 ft 424 kts 139°
2026-05-03 22:40 22.03084 114.29997 17182 ft 427 kts 144°
2026-05-03 22:40 22.00630 114.31860 17907 ft 434 kts 146°
2026-05-03 22:40 21.98149 114.33752 18650 ft 440 kts 146°
2026-05-03 22:40 21.95661 114.35710 19359 ft 446 kts 145°
2026-05-03 22:41 21.93144 114.37698 20072 ft 452 kts 146°
2026-05-03 22:41 21.90581 114.39712 20639 ft 460 kts 146°
2026-05-03 22:41 21.87994 114.41801 21225 ft 468 kts 141°
2026-05-03 22:41 21.85827 114.44431 21940 ft 474 kts 125°
2026-05-03 22:42 21.84305 114.47595 22760 ft 476 kts 115°
2026-05-03 22:42 21.83089 114.50904 23609 ft 476 kts 110°
2026-05-03 22:42 21.82089 114.54327 24167 ft 483 kts 107°
2026-05-03 22:42 21.81226 114.57855 24631 ft 491 kts 105°
2026-05-03 22:43 21.80364 114.61434 25227 ft 495 kts 105°
2026-05-03 22:43 21.79454 114.65055 25478 ft 507 kts 105°
2026-05-03 22:43 21.78508 114.68742 25776 ft 517 kts 105°
2026-05-03 22:43 21.77535 114.72507 26089 ft 526 kts 105°
2026-05-03 22:44 21.76561 114.76255 26697 ft 526 kts 104°
2026-05-03 22:44 21.75557 114.80069 27063 ft 533 kts 106°
2026-05-03 22:44 21.74002 114.83720 27354 ft 541 kts 121°
2026-05-03 22:44 21.71850 114.87043 27733 ft 542 kts 128°
2026-05-03 22:45 21.69431 114.90150 28215 ft 540 kts 134°
2026-05-03 22:45 21.66810 114.93059 28564 ft 544 kts 137°
2026-05-03 22:45 21.64055 114.95892 28779 ft 550 kts 139°
2026-05-03 22:45 21.61251 114.98733 29129 ft 552 kts 138°
2026-05-03 22:46 21.59418 115.00626 29523 ft 551 kts 139°
2026-05-03 22:46 21.55718 115.04475 29949 ft 554 kts 138°
2026-05-03 22:46 21.52994 115.07332 30450 ft 553 kts 138°
2026-05-03 22:46 21.50297 115.10183 31528 ft 536 kts 139°
2026-05-03 22:47 21.47672 115.12969 32491 ft 525 kts 139°
2026-05-03 22:47 21.45088 115.15714 33147 ft 521 kts 140°
2026-05-03 22:47 21.42511 115.18444 33614 ft 521 kts 139°
2026-05-03 22:47 21.39952 115.21156 33982 ft 522 kts 139°
2026-05-03 22:48 21.37342 115.23918 34362 ft 523 kts 139°
2026-05-03 22:48 21.34755 115.26653 34755 ft 523 kts 140°
2026-05-03 22:48 21.32168 115.29387 35188 ft 522 kts 140°
2026-05-03 22:48 21.29576 115.32124 35589 ft 521 kts 139°
2026-05-03 22:49 21.26989 115.34855 35969 ft 521 kts 139°
2026-05-03 22:49 21.24416 115.37569 36460 ft 517 kts 139°
2026-05-03 22:49 21.21850 115.40274 36782 ft 517 kts 139°
2026-05-03 22:49 21.19277 115.42986 37082 ft 518 kts 139°
2026-05-03 22:50 21.16704 115.45696 37368 ft 518 kts 139°
2026-05-03 22:50 21.14164 115.48370 37678 ft 517 kts 139°
2026-05-03 22:50 21.11603 115.51064 37967 ft 517 kts 139°
2026-05-03 22:50 21.09029 115.53771 38245 ft 516 kts 139°
2026-05-03 22:51 21.06473 115.56458 38616 ft 513 kts 139°
2026-05-03 22:51 21.03926 115.59134 38841 ft 513 kts 139°
2026-05-03 22:51 21.01372 115.61816 38940 ft 514 kts 139°
2026-05-03 22:52 20.96262 115.67177 38960 ft 514 kts 139°
2026-05-03 22:52 20.91144 115.72542 38961 ft 515 kts 139°
2026-05-03 22:53 20.86066 115.77859 38959 ft 513 kts 139°
2026-05-03 22:53 20.80959 115.83202 38959 ft 513 kts 139°
2026-05-03 22:54 20.76719 115.87633 38959 ft 513 kts 140°
2026-05-03 22:54 20.71620 115.92957 38958 ft 513 kts 140°
2026-05-03 22:55 20.66515 115.98282 38958 ft 512 kts 140°
2026-05-03 22:55 20.61406 116.03606 38957 ft 513 kts 139°
2026-05-03 22:56 20.56298 116.08925 38956 ft 513 kts 139°
2026-05-03 22:56 20.51191 116.14236 38954 ft 512 kts 139°
2026-05-03 22:57 20.46090 116.19536 38954 ft 512 kts 139°
2026-05-03 22:57 20.40979 116.24842 38955 ft 512 kts 139°
2026-05-03 22:58 20.35902 116.30107 38951 ft 512 kts 139°
2026-05-03 22:58 20.30792 116.35401 38951 ft 512 kts 139°
2026-05-03 22:59 20.25685 116.40687 38952 ft 512 kts 139°
2026-05-03 22:59 20.20581 116.45980 38952 ft 512 kts 139°
2026-05-03 23:00 20.15464 116.51268 38950 ft 512 kts 140°
2026-05-03 23:00 20.10350 116.56540 38950 ft 512 kts 139°
2026-05-03 23:01 20.05226 116.61818 38950 ft 513 kts 140°
2026-05-03 23:01 20.00107 116.67091 38949 ft 512 kts 139°
2026-05-03 23:02 19.95207 116.72624 38948 ft 514 kts 135°
2026-05-03 23:02 19.90446 116.78228 38949 ft 515 kts 136°
2026-05-03 23:03 19.85619 116.83847 38949 ft 515 kts 136°
2026-05-03 23:03 19.80771 116.89463 38949 ft 515 kts 136°
2026-05-03 23:04 19.75927 116.95069 38949 ft 515 kts 136°
2026-05-03 23:04 19.71088 117.00691 38948 ft 515 kts 136°
2026-05-03 23:05 19.66242 117.06297 38946 ft 515 kts 136°
2026-05-03 23:05 19.61395 117.11894 38946 ft 515 kts 136°
2026-05-03 23:06 19.56548 117.17484 38947 ft 514 kts 136°
2026-05-03 23:06 19.51701 117.23067 38945 ft 514 kts 136°
2026-05-03 23:07 19.46857 117.28642 38942 ft 513 kts 135°
2026-05-03 23:07 19.42052 117.34168 38943 ft 513 kts 135°
2026-05-03 23:08 19.37206 117.39734 38943 ft 514 kts 135°
2026-05-03 23:08 19.32355 117.45301 38941 ft 513 kts 135°
2026-05-03 23:09 19.27521 117.50844 38940 ft 511 kts 135°
2026-05-03 23:09 19.22730 117.56346 38940 ft 512 kts 135°
2026-05-03 23:10 19.17897 117.61883 38940 ft 512 kts 135°
2026-05-03 23:10 19.13049 117.67420 38940 ft 512 kts 135°
2026-05-03 23:11 19.08199 117.72954 38940 ft 513 kts 135°
2026-05-03 23:11 19.03345 117.78490 38939 ft 512 kts 135°
2026-05-03 23:12 18.98525 117.83974 38940 ft 511 kts 136°
2026-05-03 23:12 18.93670 117.89487 38939 ft 512 kts 135°
2026-05-03 23:13 18.88799 117.95013 38940 ft 514 kts 135°
2026-05-03 23:13 18.83932 118.00531 38939 ft 513 kts 135°
2026-05-03 23:14 18.79068 118.06043 38939 ft 513 kts 135°
2026-05-03 23:14 18.74244 118.11536 38939 ft 513 kts 135°
2026-05-03 23:15 18.69375 118.17060 38938 ft 513 kts 135°
2026-05-03 23:15 18.64513 118.22564 38938 ft 513 kts 135°
2026-05-03 23:16 18.59648 118.28065 38937 ft 512 kts 135°
2026-05-03 23:16 18.54784 118.33559 38937 ft 512 kts 135°
2026-05-03 23:17 18.49923 118.39046 38936 ft 512 kts 135°
2026-05-03 23:17 18.45095 118.44490 38935 ft 511 kts 135°
2026-05-03 23:18 18.40242 118.49957 38933 ft 510 kts 135°
2026-05-03 23:18 18.35395 118.55413 38933 ft 510 kts 135°
2026-05-03 23:19 18.30539 118.60875 38932 ft 510 kts 135°
2026-05-03 23:19 18.25684 118.66330 38931 ft 510 kts 135°
2026-05-03 23:20 18.20860 118.71751 38931 ft 510 kts 135°
2026-05-03 23:20 18.16011 118.77204 38931 ft 510 kts 135°
2026-05-03 23:21 18.11144 118.82655 38931 ft 510 kts 135°
2026-05-03 23:21 18.06287 118.88088 38930 ft 509 kts 135°
2026-05-03 23:22 17.99015 118.96217 38930 ft 509 kts 135°
2026-05-03 23:22 17.94177 119.01615 38930 ft 510 kts 135°
2026-05-03 23:23 17.89311 119.07037 38929 ft 509 kts 135°
2026-05-03 23:23 17.84449 119.12452 38929 ft 509 kts 135°
2026-05-03 23:24 17.79459 119.17684 38919 ft 504 kts 146°
2026-05-03 23:24 17.73323 119.21194 38936 ft 501 kts 157°
2026-05-03 23:25 17.67036 119.24260 38927 ft 500 kts 158°
2026-05-03 23:25 17.60722 119.27312 38928 ft 500 kts 158°
2026-05-03 23:26 17.54405 119.30368 38926 ft 500 kts 158°
2026-05-03 23:26 17.48087 119.33425 38923 ft 500 kts 158°
2026-05-03 23:27 17.41761 119.36483 38924 ft 501 kts 158°
2026-05-03 23:27 17.35427 119.39543 38921 ft 500 kts 158°
2026-05-03 23:28 17.29107 119.42594 38922 ft 500 kts 158°
2026-05-03 23:28 17.22775 119.45648 38922 ft 502 kts 158°
2026-05-03 23:29 17.16438 119.48703 38921 ft 500 kts 158°
2026-05-03 23:29 17.10158 119.51728 38921 ft 501 kts 158°
2026-05-03 23:30 17.03821 119.54777 38917 ft 502 kts 158°
2026-05-03 23:30 16.97457 119.57838 38924 ft 504 kts 158°
2026-05-03 23:31 16.91080 119.60903 38925 ft 504 kts 158°
2026-05-03 23:31 16.84721 119.63955 38937 ft 503 kts 157°
2026-05-03 23:32 16.78363 119.67007 38937 ft 502 kts 157°
2026-05-03 23:32 16.73063 119.69549 38936 ft 505 kts 157°
2026-05-03 23:33 16.65635 119.73109 38939 ft 504 kts 156°
2026-05-03 23:33 16.59255 119.76163 38934 ft 506 kts 156°
2026-05-03 23:34 16.52857 119.79226 38940 ft 504 kts 156°
2026-05-03 23:34 16.46488 119.82271 38939 ft 503 kts 157°
2026-05-03 23:35 16.40109 119.85318 38937 ft 506 kts 156°
2026-05-03 23:35 16.33673 119.88390 38930 ft 510 kts 156°
2026-05-03 23:36 16.27236 119.91463 38933 ft 508 kts 157°
2026-05-03 23:36 16.20844 119.94508 38930 ft 510 kts 156°
2026-05-03 23:37 16.14369 119.97593 38928 ft 513 kts 156°
2026-05-03 23:37 16.07868 120.00689 38929 ft 512 kts 156°
2026-05-03 23:38 16.01384 120.03771 38897 ft 516 kts 156°
2026-05-03 23:38 15.98082 120.05343 38487 ft 527 kts 156°
2026-05-03 23:38 15.94746 120.06929 37504 ft 536 kts 156°
2026-05-03 23:39 15.91325 120.08554 36183 ft 544 kts 156°
2026-05-03 23:39 15.87859 120.10196 34817 ft 551 kts 156°
2026-05-03 23:39 15.84346 120.11864 33771 ft 554 kts 155°
2026-05-03 23:39 15.80838 120.13532 32798 ft 555 kts 156°
2026-05-03 23:40 15.77343 120.15190 31806 ft 550 kts 156°
2026-05-03 23:40 15.73874 120.16835 31000 ft 542 kts 156°
2026-05-03 23:40 15.70474 120.18447 30324 ft 532 kts 156°
2026-05-03 23:40 15.67137 120.20028 29567 ft 524 kts 156°
2026-05-03 23:41 15.63884 120.21568 28829 ft 516 kts 156°
2026-05-03 23:41 15.60636 120.23106 28076 ft 510 kts 156°
2026-05-03 23:41 15.57419 120.24628 27368 ft 503 kts 156°
2026-05-03 23:41 15.54644 120.25942 26732 ft 497 kts 155°
2026-05-03 23:42 15.52558 120.26929 26262 ft 493 kts 155°
2026-05-03 23:42 15.49455 120.28397 25565 ft 487 kts 155°
2026-05-03 23:42 15.45393 120.30317 24648 ft 480 kts 155°
2026-05-03 23:42 15.43343 120.31286 24184 ft 476 kts 155°
2026-05-03 23:43 15.40349 120.32700 23500 ft 471 kts 155°
2026-05-03 23:43 15.37418 120.34085 22825 ft 466 kts 155°
2026-05-03 23:43 15.34483 120.35471 22143 ft 461 kts 155°
2026-05-03 23:43 15.31584 120.36839 21472 ft 456 kts 155°
2026-05-03 23:44 15.28714 120.38193 20805 ft 451 kts 155°
2026-05-03 23:44 15.25875 120.39533 20138 ft 446 kts 155°
2026-05-03 23:44 15.23062 120.40859 19472 ft 441 kts 155°
2026-05-03 23:44 15.20275 120.42174 18808 ft 437 kts 155°
2026-05-03 23:45 15.17521 120.43472 18143 ft 433 kts 155°
2026-05-03 23:45 15.14790 120.44759 17483 ft 429 kts 155°
2026-05-03 23:45 15.12089 120.46031 16849 ft 425 kts 155°
2026-05-03 23:45 15.09414 120.47291 16212 ft 421 kts 155°
2026-05-03 23:46 15.06761 120.48540 15569 ft 417 kts 155°
2026-05-03 23:46 15.04129 120.49779 14926 ft 413 kts 155°
2026-05-03 23:46 15.01520 120.51007 14284 ft 410 kts 155°
2026-05-03 23:46 14.98928 120.52226 13654 ft 406 kts 155°
2026-05-03 23:47 14.96403 120.53414 13055 ft 402 kts 155°
2026-05-03 23:47 14.93866 120.54606 12451 ft 399 kts 155°
2026-05-03 23:47 14.91340 120.55794 11784 ft 397 kts 155°
2026-05-03 23:47 14.88826 120.56975 11165 ft 395 kts 155°
2026-05-03 23:48 14.86373 120.58128 11034 ft 378 kts 155°
2026-05-03 23:48 14.84024 120.59232 10903 ft 364 kts 154°
2026-05-03 23:48 14.81757 120.60296 10739 ft 351 kts 154°
2026-05-03 23:48 14.79573 120.61327 10580 ft 339 kts 154°
2026-05-03 23:49 14.77464 120.62321 10425 ft 327 kts 154°
2026-05-03 23:49 14.75449 120.63268 10273 ft 317 kts 154°
2026-05-03 23:49 14.73472 120.64197 10120 ft 306 kts 154°
2026-05-03 23:49 14.71567 120.65091 9967 ft 295 kts 154°
2026-05-03 23:50 14.69705 120.65964 9633 ft 292 kts 154°
2026-05-03 23:50 14.67858 120.66831 9244 ft 291 kts 154°
2026-05-03 23:50 14.66020 120.67692 8865 ft 289 kts 154°
2026-05-03 23:50 14.64209 120.68541 8542 ft 282 kts 154°
2026-05-03 23:51 14.62476 120.69353 8434 ft 265 kts 154°
2026-05-03 23:51 14.60849 120.70116 8292 ft 250 kts 154°
2026-05-03 23:51 14.59297 120.70843 8003 ft 241 kts 153°
2026-05-03 23:51 14.57788 120.71550 7669 ft 234 kts 153°
2026-05-03 23:52 14.56313 120.72241 7257 ft 233 kts 153°
2026-05-03 23:52 14.54836 120.72933 6794 ft 233 kts 153°
2026-05-03 23:52 14.53395 120.73608 6498 ft 225 kts 153°
2026-05-03 23:52 14.52012 120.74257 6274 ft 213 kts 153°
2026-05-03 23:53 14.50705 120.74914 5932 ft 206 kts 149°
2026-05-03 23:53 14.49452 120.75632 5764 ft 207 kts 147°
2026-05-03 23:53 14.48207 120.76386 5739 ft 207 kts 147°
2026-05-03 23:53 14.46957 120.77140 5605 ft 207 kts 147°
2026-05-03 23:54 14.45732 120.77868 5385 ft 201 kts 147°
2026-05-03 23:54 14.44517 120.78584 5010 ft 200 kts 147°
2026-05-03 23:54 14.43308 120.79294 4755 ft 199 kts 148°
2026-05-03 23:54 14.42122 120.79988 4509 ft 198 kts 148°
2026-05-03 23:55 14.40953 120.80731 4268 ft 196 kts 137°
2026-05-03 23:55 14.40263 120.81891 4020 ft 191 kts 101°
2026-05-03 23:55 14.40378 120.83226 3712 ft 187 kts 75°
2026-05-03 23:55 14.40893 120.84446 3449 ft 185 kts 65°
2026-05-03 23:56 14.41537 120.85582 3191 ft 181 kts 59°
2026-05-03 23:56 14.42203 120.86645 2939 ft 172 kts 58°
2026-05-03 23:56 14.42843 120.87689 2719 ft 174 kts 58°
2026-05-03 23:56 14.43471 120.88749 2488 ft 172 kts 59°
2026-05-03 23:57 14.44074 120.89804 2296 ft 166 kts 59°
2026-05-03 23:57 14.44631 120.90787 2087 ft 158 kts 59°
2026-05-03 23:57 14.45180 120.91756 1895 ft 157 kts 59°
2026-05-03 23:57 14.45729 120.92731 1721 ft 157 kts 60°
2026-05-03 23:58 14.46279 120.93716 1496 ft 158 kts 60°
2026-05-03 23:58 14.46828 120.94702 1241 ft 159 kts 60°
2026-05-03 23:58 14.47380 120.95692 1046 ft 159 kts 60°
2026-05-03 23:58 14.47931 120.96680 849 ft 159 kts 60°
2026-05-03 23:59 14.48482 120.97669 639 ft 159 kts 60°
2026-05-03 23:59 14.49039 120.98641 417 ft 158 kts 60°
2026-05-03 23:59 14.49573 120.99641 199 ft 160 kts 60°
2026-05-03 23:59 14.50115 121.00616 100 ft 150 kts 60°
2026-05-04 00:00 14.50587 121.01451 89 ft 111 kts 61°
2026-05-04 00:00 14.50851 121.01943 88 ft 47 kts 60°
2026-05-04 00:00 14.50970 121.02150 88 ft 20 kts 62°
2026-05-04 00:00 14.51056 121.02311 88 ft 31 kts 60°
2026-05-04 00:01 14.51146 121.02471 88 ft 19 kts 59°
2026-05-04 00:01 14.51229 121.02544 88 ft 17 kts 352°
2026-05-04 00:01 14.51302 121.02463 88 ft 17 kts 266°
2026-05-04 00:01 14.51256 121.02356 88 ft 16 kts 236°
2026-05-04 00:02 14.51196 121.02264 88 ft 15 kts 236°
2026-05-04 00:02 14.51140 121.02175 88 ft 14 kts 239°
2026-05-04 00:02 14.51092 121.02089 88 ft 13 kts 241°
2026-05-04 00:02 14.51049 121.02007 88 ft 13 kts 241°
2026-05-04 00:03 14.51031 121.01923 88 ft 12 kts 287°
2026-05-04 00:03 14.51084 121.01858 88 ft 12 kts 317°
2026-05-04 00:03 14.51144 121.01802 88 ft 11 kts 317°
2026-05-04 00:03 14.51197 121.01745 88 ft 11 kts 314°
2026-05-04 00:04 14.51249 121.01691 88 ft 10 kts 314°
2026-05-04 00:04 14.51298 121.01640 88 ft 10 kts 315°
2026-05-04 00:04 14.51346 121.01591 88 ft 10 kts 316°
2026-05-04 00:04 14.51404 121.01569 88 ft 9 kts
2026-05-04 00:05 14.51466 121.01569 88 ft 9 kts 342°
2026-05-04 00:05 14.51511 121.01530 88 ft 8 kts 314°
2026-05-04 00:05 14.51562 121.01524 88 ft 8 kts 33°
2026-05-04 00:05 14.51601 121.01562 88 ft 1 kts 44°